Alberton, MT

7:33 AM MST on December 08, 2016 (GMT -0700)
Ranch Club | | Change Station
Active Advisory: Winter Storm Watch

Elev 3179 ft 46.90 °N, 114.12 °W | Updated 47 minutes ago

Clear
Clear
4.5 °F
Feels Like 4 °F
N
0.0
Wind Variable Wind from West

Today
High -- | Low -- °F
--% Chance of Precip.
Yesterday
High -- | Low -- °F
Precip. -- in
Pressure 30.58 in
Visibility 10.0 miles
Clouds Clear
Windchill 4 °F
Dew Point 1 °F
Humidity 84%
Rainfall 0.00 in
Snow Depth Not available.
8:11 AM 4:48 PM
Waxing Gibbous, 64% visible
METAR KMSO 081353Z 10009KT 10SM CLR M14/M18 A3039 RMK AO2 SLP355 T11441183
Pressure 30.58 in
Visibility 10.0 miles
Clouds Clear
Windchill 4 °F
Dew Point 1 °F
Humidity 84%
Rainfall 0.00 in
Snow Depth Not available.
8:11 AM 4:48 PM
Waxing Gibbous, 64% visible
METAR KMSO 081353Z 10009KT 10SM CLR M14/M18 A3039 RMK AO2 SLP355 T11441183

10-Day Weather Forecast

Almanac

Astronomy

Dec. 08, 2016 Rise Set
Actual Time
Civil Twilight
Nautical Twilight
Astronomical Twilight
Moon
Length of Visible Light
Length of Day
Tomorrow will be .
, % of the Moon is Illuminated

Today's Extremes

State Highs State Lows

Community

WunderPhotos

Upload Photos

1,956,268 photos uploaded!

WunderBlog® & News

Nearby

Air Quality

  Air Quality AQ Index Pollutant
Not available.

Snow Depth

Station Depth Elevation

Earthquake Activity

City Distance Mag. Time & Date
Minimum magnitude displayed is 2.5.

Coastal Water Temperatures

Place Temperature

Stations

Nearby Weather Stations

Station Location Temp. Windchill Dew Point Humidity Wind Precip. Elev Updated Type
                   

Watches & Warnings

Winter Storm Watch
Issued: 1:24 PM PST Dec. 7, 2016 – National Weather Service

... Winter Storm Watch remains in effect from Thursday afternoon
through Saturday morning...

* impacts/timing: an impressive push of relatively warm, moist air
will move into the northern rockies late Thursday and interact
with an already very cold environment to produce widespread snow
that will last at least through the weekend. Periods of heavy
snow are possible, especially Friday afternoon through late
Friday night and again late Saturday.

* Snow accumulations: between Thursday evening and Saturday
morning 12 to 24 inches are possible throughout the higher
terrain including over lookout, Lolo and lost trail passes.
Valley locations within the watch area should prepare for 6 to
12 inches with locally higher amounts possible in some
locations. Snowfall may be very heavy at times with rates
exceeding 2 inches per hour and may result in significantly
reduced visibility.

* Cities and frequent travel routes impacted include: Elk River,
ID-11 Pierce to Headquarters, Pierce, Dixie, Elk City, US-12
Lowell to Lolo Pass, Evaro hill, Mt-200 Thompson Falls to
plains, Mt-200 Trout Creek to Heron, I-90 Lookout Pass to
Haugan, US-93 Sula to Lost Trail Pass, and Lolo Pass